Regional Weather Roundup
Issued by NWS

Home | Current Version | Previous Version | Text Only | Print | Product List | Glossary On
Versions: 1 2 3 4 5 6 7 8 9 10 11 12 13 14 15 16 17 18 19 20 21 22 23 24 25 26 27 28 29 30 31 32 33 34 35 36 37 38 39 40 41 42 43 44 45 46 47 48 49 50
000
ASUS43 KDTX 280801
RWRMI
MICHIGAN HOURLY REGIONAL WEATHER ROUNDUP
NATIONAL WEATHER SERVICE DETROIT/PONTIAC MI
400 AM EDT TUE MAR 28 2017

NOTE: "FAIR" INDICATES FEW OR NO CLOUDS BELOW 12,000 FEET WITH NO
SIGNIFICANT WEATHER AND/OR OBSTRUCTION TO VISIBILITY.

MIZ047>049-052>055-059>063-066>070-074>076-081>083-280900-
SOUTHEAST LOWER MICHIGAN

CITY           SKY/WX    TMP DP  RH WIND       PRES   REMARKS
ADRIAN         CLOUDY    49  46  90 NE10      29.89S
ANN ARBOR      CLOUDY    49  45  86 NW10      29.89S
BAD AXE        CLOUDY    37  37  99 N9        29.96S WCI  30
CARO           CLOUDY    39  38  98 NE3       29.95S FOG
DETROIT CITY   CLOUDY    44  41  89 NE9       29.91S
DETROIT        CLOUDY    50  46  86 NE10      29.90S
FLINT          CLOUDY    42  41  96 NE12      29.94S FOG
GROSSE ILE     CLOUDY    44  42  93 NE10      29.89S
HILLSDALE      CLOUDY    46  45  93 N6        29.89S FOG
HOWELL         CLOUDY    44  41  90 N7        29.91S

CITY           SKY/WX    TMP DP  RH WIND       PRES   REMARKS
JACKSON        CLOUDY    46  41  82 N7        29.91S
LAMBERTVILLE   CLOUDY    52  47  83 N6        29.87S
LANSING        CLOUDY    44  40  85 N9        29.94S
LAPEER         CLOUDY    39  39  99 NE10      29.94F FOG     WCI  32
MASON          CLOUDY    45  43  93 N7        29.93R
MONROE         MOCLDY    50  48  92 NE7       29.87S
MT. CLEMENS    CLOUDY    40  40 100 N12       29.91S WCI  33
PONTIAC        CLOUDY    44  42  93 NE10      29.90S FOG
PORT HOPE        N/A     35  34  96 N5        29.95S WCI  31
PORT HURON     CLOUDY    37  36  93 N6        29.94S WCI  33
TRI CITIES     CLOUDY    39  39 100 NE7       29.97S FOG     WCI  34
MIDLAND        CLOUDY    40  39  97 CALM      29.97S FOG
TROY           CLOUDY    43  40  89 NE9G16    29.94R
SAGINAW HB     CLOUDY    39  36  87 NE10      29.96S WCI  32
$$
MIZ043>046-050>051-056>058-064>065-071>073-077>080-280900-
SOUTHWEST LOWER MICHIGAN

CITY           SKY/WX    TMP DP  RH WIND       PRES   REMARKS
BATTLE CREEK   CLOUDY    46  42  86 N8        29.93S
BENTON HARBOR  CLOUDY    39  35  86 N6        29.96S WCI  35
BIG RAPIDS     CLOUDY    37  35  90 N5        29.97S WCI  34
COLDWATER      CLOUDY    46  45  93 N8        29.91S
FREMONT        CLOUDY    38  37  96 N7        29.98R WCI  33
HOLLAND        CLOUDY    41  37  86 N5        29.97S
GRAND RAPIDS   CLOUDY    43  41  93 N8        29.95S
IONIA          CLOUDY    42  40  95 N7        29.94S
KALAMAZOO      CLOUDY    44  39  82 N8        29.93S
LUDINGTON      CLOUDY    37  37  99 N5        30.01R WCI  33
MARSHALL       CLOUDY    46  43  90 N6        29.92R
MOUNT PLEASANT CLOUDY    39  35  86 N6        29.97S WCI  35
MUSKEGON       CLOUDY    40  37  89 N6        29.98S
SOUTH HAVEN    CLOUDY    38  37  95 N3        29.96S
$$
MIZ016>042-280900-
NORTHERN LOWER MICHIGAN

CITY           SKY/WX    TMP DP  RH WIND       PRES   REMARKS
ALPENA         CLOUDY    36  36 100 N8        30.00R FOG     WCI  30
BEAVER ISLAND  FOG       31  31 100 CALM      30.03R VSB 1/2
BELLAIRE       CLOUDY    35  33  91 N3        30.02R
CADILLAC       FOG       35  34  96 N3        29.97S VSB 1
CHARLEVOIX     CLOUDY    33  33 100 N7        30.05S WCI  27
FRANKFORT      CLOUDY    36  33  88 CALM      30.02S
GAYLORD        FOG       36  32  85 VRB5      29.98R VSB 3/4 WCI  32
HARBOR SPRINGS CLOUDY    34  33  97 N5        30.02R WCI  30
HOUGHTON LAKE  CLOUDY    35  34  96 N6        29.98S WCI  30
MANISTEE       CLOUDY    37  34  89 N6        30.01S WCI  32
OSCODA         CLOUDY    38  37  97 N5        29.97S WCI  35
PELLSTON       CLOUDY    34  32  92 NW3       30.03R FOG
ROGERS CITY    CLOUDY    35  33  93 NW5       30.02R FOG     WCI  31
TRAVERSE CITY  CLOUDY    37  33  85 N6        30.01R WCI  32
$$
MIZ007>008-015-280900-
EASTERN UPPER MICHIGAN

CITY           SKY/WX    TMP DP  RH WIND       PRES   REMARKS
KINROSS        CLOUDY    33  32  96 N6        30.02R WCI  28
MACKINAC ISLAN CLOUDY    33  33 100 N6        30.01S WCI  27
NEWBERRY       FOG       31  30  96 CALM      30.03R VSB 1/4
S. S. MARIE    CLOUDY    38  33  82 NE5       30.01S WCI  34
MUNISING         N/A     31  31 100 NE8       30.05R WCI  23
$$
MIZ004>006-011>014-085-280900-
CENTRAL UPPER MICHIGAN

CITY           SKY/WX    TMP DP  RH WIND       PRES   REMARKS
ESCANABA       CLEAR     26  25  96 NW3       30.05R
MENOMINEE        N/A    N/A N/A N/A MISG        N/A
SAWYER-GWINN   CLEAR     28  27  99 CALM      30.03S
$$
MIZ001>003-009>011-084-280900-
WESTERN UPPER MICHIGAN

CITY           SKY/WX    TMP DP  RH WIND       PRES   REMARKS
IRON MOUNTAIN  FOG       25  23  92 CALM      30.03R VSB 1
HOUGHTON       CLEAR     30  26  85 NW9       30.05R WCI  22
COPPER HARBOR    N/A     34  30  85 W5        30.05R WCI  30
IRONWOOD       CLEAR     24  23  96 CALM      30.07R
$$

ABBREVIATIONS USED IN REMARKS
   TC - TEMPERATURE IN CELSIUS
  WCI - WIND CHILL INDEX
   HX - HEAT INDEX
  VSB - VISIBILITY





USA.gov is the U.S. government's official web portal to all federal, state and local government web resources and services.